Warning: Javascript must be enabled to use all the features on this page!


Page Loading - Please Wait...

Click to hideNews Bulletins

Streamflow Measurements for the Nation


USGS 11336790 LITTLE POTATO SLOUGH A TERMINOUS CA


San Joaquin County, California
Hydrologic Unit Code 18040012
Latitude  38°05'47", Longitude 121°29'46" NAD83
Output formats
HTML table with channel data
HTML table without channel data
Tab-separated data with channel data
Tab-separated data without channel data
Graph of data
Reselect output format
Meas.
Number
  Date       Time Time
Datum
Measurement
Used?
  Who Measuring
Agency
Stream
flow
(ft3/s)
Gage
Height
(ft)
GH
Change
(ft)
Meas.
Duration
(hr)
Meas.
Rated
  Control Flow
Adjust.
Code
 
8122019-11-07 13:50:38PSTYesAC, MIUSGS-264017.91 Poor NONE
8112019-11-07 13:47:20PSTYesAC, MIUSGS-230017.97 Poor NONE
8102019-11-07 13:43:58PSTYesAC, MIUSGS-302017.89 Poor NONE
8092019-11-07 13:40:07PSTYesAC, MIUSGS-262017.87 Poor NONE
8082019-11-07 13:36:29PSTYesAC, MIUSGS-312017.85 Poor NONE
8072019-11-07 13:33:01PSTYesAC, MIUSGS-251017.83 Poor NONE
8062019-09-19 14:09:03PSTYesHR, ACUSGS605016.06 Fair NONE
8052019-09-19 14:06:06PSTYesHR, ACUSGS622016.06 Fair NONE
8042019-09-19 14:03:02PSTYesHR, ACUSGS641016.06 Fair NONE
8032019-09-19 13:59:56PSTYesHR, ACUSGS647016.07 Fair NONE
8022019-09-19 13:56:48PSTYesHR, ACUSGS633016.08 Fair NONE
8012019-09-19 13:53:39PSTYesHR, ACUSGS644016.08 Fair NONE
8002019-07-31 13:34:48PSTYesTD/ACUSGS38215.85 Good NONE
7992019-07-31 13:31:54PSTYesTD/ACUSGS86215.85 Good NONE
7982019-07-31 13:28:26PSTYesTD/ACUSGS101015.82 Good NONE
7972019-07-31 13:25:26PSTYesTD/ACUSGS151015.78 Good NONE
7962019-07-31 13:20:51PSTYesTD/ACUSGS185015.74 Good NONE
7952019-07-31 13:17:38PSTYesTD/ACUSGS239015.71 Good NONE
7942019-06-05 13:05:42PSTYesAC, MPUSGS1000016.09 Good NONE
7932019-06-05 13:00:49PSTYesAC, MPUSGS951016.11 Good NONE
7922019-06-05 12:55:44PSTYesAC, MPUSGS1010016.16 Good NONE
7912019-06-05 12:51:03PSTYesAC, MPUSGS982016.20 Good NONE
7902019-06-05 12:46:39PSTYesAC, MPUSGS985016.23 Good NONE
7892019-06-05 12:42:50PSTYesAC, MPUSGS958016.26 Good NONE
7882019-04-05 08:53:30PSTYesJH, ACUSGS943017.65 Good NONE
7872019-04-05 08:50:08PSTYesJH, ACUSGS946017.67 Good NONE
7862019-04-05 08:46:33PSTYesJH, ACUSGS962017.71 Good NONE
7852019-04-05 08:43:22PSTYesJH, ACUSGS886017.73 Good NONE
7842019-04-05 08:24:20PSTYesJH, ACUSGS915017.87 Good NONE
7832019-04-05 08:20:40PSTYesJH, ACUSGS874017.91 Good NONE
7822019-04-05 08:17:11PSTYesJH, ACUSGS902017.93 Good NONE
7812019-04-05 08:13:41PSTYesJH, ACUSGS868017.97 Good NONE
7802019-04-05 08:10:24PSTYesJH, ACUSGS838017.99 Good NONE
7792019-04-05 08:06:47PSTYesJH, ACUSGS840018.02 Good NONE
7782019-04-05 08:03:18PSTYesJH, ACUSGS819018.05 Good NONE
7772019-04-05 07:59:48PSTYesJH, ACUSGS830018.07 Good NONE
7762019-04-05 07:56:17PSTYesJH, ACUSGS817018.10 Good NONE
7752019-04-05 07:52:54PSTYesJH, ACUSGS813018.12 Good NONE
7742019-04-05 07:49:44PSTYesJH, ACUSGS790018.15 Good NONE
7732019-04-05 07:46:25PSTYesJH, ACUSGS805018.17 Good NONE
7722019-03-26 12:38:15PSTNo
7712019-03-26 12:34:06PSTNo
7702019-03-26 12:29:51PSTNo
7692019-03-26 12:26:07PSTNo
7682019-03-26 12:22:19PSTNo
7672019-03-26 12:18:35PSTNo
7662019-01-29 11:36:56PSTYesAC/JHUSGS-257018.64 Good NONE
7652019-01-29 11:33:27PSTYesAC/JHUSGS-258018.62 Good NONE
7642019-01-29 11:29:54PSTYesAC/JHUSGS-243018.60 Good NONE
7632019-01-29 11:25:11PSTYesAC/JHUSGS-246018.56 Good NONE
7622019-01-29 11:21:40PSTYesAC/JHUSGS-279018.54 Good NONE
7612019-01-29 11:18:19PSTYesAC/JHUSGS-264018.52 Good NONE
7602018-11-28 16:07:23PSTYesMP/ACUSGS166016.95 Fair NONE
7592018-11-28 16:03:40PSTYesMP/ACUSGS199016.92 Fair NONE
7582018-11-28 15:58:35PSTYesMP/ACUSGS226016.89 Fair NONE
7572018-11-28 15:55:04PSTYesMP/ACUSGS250016.87 Fair NONE
7562018-11-28 15:50:50PSTYesMP/ACUSGS289016.85 Fair NONE
7552018-11-28 15:47:51PSTYesMP/ACUSGS296016.83 Fair NONE
7542018-10-04 11:02:03PSTYesMP/AC/HRUSGS-327016.68 Fair NONE
7532018-10-04 10:58:06PSTYesMP/AC/HRUSGS-313016.64 Fair NONE
7522018-10-04 10:54:02PSTYesMP/AC/HRUSGS-310016.58 Fair NONE
7512018-10-04 10:49:56PSTYesMP/AC/HRUSGS-312016.56 Fair NONE
7502018-10-04 10:45:59PSTYesMP/AC/HRUSGS-302016.52 Fair NONE
7492018-10-04 10:37:35PSTYesMP/AC/HRUSGS-298016.43 Fair NONE
7482018-08-23 13:48:09PSTYesCC/MP/TDUSGS-292016.78 Good NONE
7472018-08-23 13:45:15PSTYesCC/MP/TDUSGS-297016.76 Good NONE
7462018-08-23 13:40:53PSTYesCC/MP/TDUSGS-289016.71 Good NONE
7452018-08-23 13:37:55PSTYesCC/MP/TDUSGS-278016.69 Good NONE
7442018-08-23 13:34:58PSTYesCC/MP/TDUSGS-284016.66 Good NONE
7432018-08-23 13:32:04PSTYesCC/MP/TDUSGS-268016.63 Good NONE
7422018-08-01 11:47:07PSTNo
7412018-07-25 13:52:31PSTYesCC/AC/HRUSGS-276016.35 Good NONE
7402018-07-25 13:48PSTYesCC/AC/HRUSGS-264016.30 Good NONE
7392018-07-25 13:42:49PSTYesCC/AC/HRUSGS-267016.25 Good NONE
7382018-07-25 13:34:22PSTYesCC/AC/HRUSGS-227016.16 Good NONE
7372018-07-25 13:29:30PSTYesCC/AC/HRUSGS-210016.11 Good NONE
7362018-07-25 13:25:53PSTYesCC/AC/HRUSGS-178016.07 Good NONE
7352018-05-29 11:53:19PSTYesTV/CCUSGS720015.38 Unspecified NONE
7342018-05-29 11:48:15PSTYesTV/CCUSGS751015.41 Unspecified NONE
7332018-05-29 11:43:06PSTYesTV/CCUSGS746015.44 Unspecified NONE
7322018-05-29 11:37:33PSTYesTV/CCUSGS752015.48 Unspecified NONE
7312018-05-29 11:31:26PSTYesTV/CCUSGS732015.52 Unspecified NONE
7302018-05-29 11:25:41PSTYesTV/CCUSGS756015.57 Unspecified NONE
7292018-03-27 15:35:20PSTNo
7282018-03-27 15:26:54PSTNo
7272018-03-27 15:18:35PSTNo
7262018-03-27 15:11:13PSTNo
7252018-03-27 15:02:28PSTNo
7242018-03-27 14:55:12PSTNo
7232018-02-08 11:35:40PSTYesTV/BSUSGS-190018.12 Unspecified NONE
7222018-02-08 11:30:48PSTYesTV/BSUSGS-228018.12 Unspecified NONE
7212018-02-08 11:25:25PSTYesTV/BSUSGS-300018.09 Unspecified NONE
7202018-02-08 11:19:42PSTYesTV/BSUSGS-278018.06 Unspecified NONE
7192018-02-08 11:14:03PSTYesTV/BSUSGS-214018.00 Unspecified NONE
7182018-02-08 11:08:53PSTYesTV/BSUSGS-290018.03 Unspecified NONE
7172017-12-13 11:28:58PSTYesTV/BSUSGS-549016.99 Unspecified NONE
7162017-12-13 11:22:07PSTYesTV/BSUSGS-528016.93 Unspecified NONE
7152017-12-13 11:15:40PSTYesTV/BSUSGS-550016.86 Unspecified NONE
7142017-12-13 11:09:52PSTYesTV/BSUSGS-549016.81 Unspecified NONE
7132017-12-13 11:03:52PSTYesTV/BSUSGS-535016.75 Unspecified NONE
7122017-12-13 10:58:33PSTYesTV/BSUSGS-517016.70 Unspecified NONE
7112017-10-24 10:24PSTYesTV,BSUSGS59317.04 Unspecified NONE
7102017-10-24 10:17:18PSTYesTV,BSUSGS47717.10 Unspecified NONE
7092017-10-24 10:09:46PSTYesTV,BSUSGS-24.417.11 Unspecified NONE
7082017-10-24 10:03:12PSTYesTV,BSUSGS-34617.11 Unspecified NONE
7072017-10-24 09:56:02PSTYesTV,BSUSGS-11017.15 Unspecified NONE
7062017-10-24 09:49:15PSTYesTV,BSUSGS-113017.21 Unspecified NONE
7052017-08-17 13:10:30PSTYesRPJ TvUSGS-158017.64 Good NONE
7042017-08-17 13:04:11PSTYesRPJ TvUSGS-171017.60 Good NONE
7032017-08-17 12:58:07PSTYesRPJ TvUSGS-186017.57 Good NONE
7022017-08-17 12:51:52PSTYesRPJ TvUSGS-183017.52 Good NONE
7012017-08-17 12:43:05PSTYesRPJ TvUSGS-199017.45 Good NONE
7002017-08-17 12:34:21PSTYesRPJ TvUSGS-219017.38 Good NONE
6992017-06-08 09:46:30PSTYesBS, CVUSGS918016.53 Unspecified NONE
6982017-06-08 09:39PSTYesBS, CVUSGS872016.59 Unspecified NONE
6972017-06-08 09:33:30PSTYesBS, CVUSGS882016.64 Unspecified NONE
6962017-06-08 09:28PSTYesBS, CVUSGS860016.70 Unspecified NONE
6952017-06-08 09:22:30PSTYesBS, CVUSGS882016.75 Unspecified NONE
6942017-06-08 09:17PSTYesBS, CVUSGS853016.78 Unspecified NONE
6932017-05-08 10:06:32PSTYesTV/BSUSGS893016.38 Good NONE
6922017-05-08 09:59:46PSTYesTV/BSUSGS881016.43 Good NONE
6912017-05-08 09:52:55PSTYesTV/BSUSGS863016.47 Good NONE
6902017-05-08 09:46:25PSTYesTV/BSUSGS884016.51 Good NONE
6892017-05-08 09:39:42PSTYesTV/BSUSGS893016.57 Good NONE
6882017-05-08 09:33:05PSTYesTV/BSUSGS870016.63 Good NONE
6822017-02-14 13:53:57PSTYesTV/CHUSGS1330018.59 Good NONE
6832017-02-14 13:46:15PSTYesTV/CHUSGS1380018.62 Good NONE
6842017-02-14 13:39:27PSTYesTV/CHUSGS1300018.64 Good NONE
6852017-02-14 13:32:28PSTYesTV/CHUSGS1350018.67 Good NONE
6862017-02-14 13:25:40PSTYesTV/CHUSGS1390018.70 Good NONE
6872017-02-14 13:17:55PSTYesTV/CHUSGS1370018.72 Good NONE
6812017-02-07 14:28:46PSTYesTV/DiveUSGS651021.03 Good NONE
6802017-02-07 14:20:56PSTYesTV/DiveUSGS582021.07 Good NONE
6792017-02-07 14:13:01PSTYesTV/DiveUSGS559021.11 Good NONE
6782017-02-07 14:04:58PSTYesTV/DiveUSGS513021.14 Good NONE
6772017-02-07 13:56:18PSTYesTV/DiveUSGS471021.17 Good NONE
6762017-02-07 13:46:38PSTYesTV/DiveUSGS442021.19 Good NONE
6752017-01-31 14:30:16PSTNo
6742017-01-31 14:23:32PSTNo
6732017-01-31 14:16:11PSTNo
6722017-01-31 14:09:01PSTNo
6712017-01-31 14:02:38PSTNo
6702017-01-31 13:55:26PSTNo
6692017-01-14 10:24:46PSTYesBS, NVUSGS1490018.78 Good NONE
6682017-01-14 10:19:13PSTYesBS, NVUSGS1510018.81 Good NONE
6672017-01-14 10:14:01PSTYesBS, NVUSGS1480018.84 Good NONE
6662017-01-14 10:08:59PSTYesBS, NVUSGS1490018.86 Good NONE
6652017-01-14 10:04:03PSTYesBS, NVUSGS1430018.89 Good NONE
6642017-01-14 09:59:18PSTYesBS, NVUSGS1450018.92 Good NONE
6632016-12-13 14:41:42PSTYesBS/TVUSGS-254018.42 Fair NONE
6622016-12-13 14:35:31PSTYesBS/TVUSGS-262018.37 Fair NONE
6612016-12-13 14:29:02PSTYesBS/TVUSGS-267018.32 Fair NONE
6602016-12-13 14:22:23PSTYesBS/TVUSGS-288018.26 Fair NONE
6592016-12-13 14:17:07PSTYesBS/TVUSGS-290018.21 Fair NONE
6582016-12-13 14:09:47PSTYesBS/TVUSGS-290018.15 Fair NONE
6572016-09-13 13:32:24PSTYesTV, CHUSGS-316017.16 Good NONE
6562016-09-13 13:27:15PSTYesTV, CHUSGS-310017.10 Good NONE
6552016-09-13 13:18:07PSTYesTV, CHUSGS-329017.01 Good NONE
6542016-09-13 13:11:45PSTYesTV, CHUSGS-334016.95 Good NONE
6532016-09-13 13:06:32PSTYesTV, CHUSGS-342016.90 Good NONE
6522016-09-13 13:01:25PSTYesTV, CHUSGS-348016.82 Good NONE
6512016-09-13 12:56:34PSTYesTV, CHUSGS-344016.80 Good NONE
6502016-07-06 10:49:28PSTYesTV, WFUSGS844016.70 Good NONE
6492016-07-06 10:42:07PSTYesTV, WFUSGS853016.77 Good NONE
6482016-07-06 10:33:01PSTYesTV, WFUSGS829016.85 Good NONE
6472016-07-06 10:24:26PSTYesTV, WFUSGS804016.93 Good NONE
6462016-07-06 10:12:23PSTYesTV, WFUSGS791017.04 Good NONE
6452016-07-06 10:03:55PSTYesTV, WFUSGS778017.12 Good NONE
6442016-04-19 14:17:38PSTYesRJ,CHUSGS-391017.07 Good NONE
6432016-04-19 14:10:18PSTYesRJ,CHUSGS-413017.01 Good NONE
6422016-04-19 14:02:49PSTYesRJ,CHUSGS-386016.94 Good NONE
6412016-04-19 13:57:26PSTYesRJ,CHUSGS-399016.89 Good NONE
6402016-04-19 13:52:22PSTYesRJ,CHUSGS-407016.85 Good NONE
6392016-04-19 13:43:49PSTYesRJ,CHUSGS-390016.77 Good NONE
6382016-03-15 12:20:31PSTYesBS/NDUSGS898018.27 Good NONE
6372016-03-15 12:15:31PSTYesBS/NDUSGS936018.31 Good NONE
6362016-03-15 12:10:47PSTYesBS/NDUSGS897018.35 Good NONE
6352016-03-15 12:05:38PSTYesBS/NDUSGS918018.39 Good NONE
6342016-03-15 12:00:41PSTYesBS/NDUSGS884018.43 Good NONE
6332016-03-15 11:55:02PSTYesBS/NDUSGS887018.48 Good NONE
6322015-07-22 12:37PSTYesET/TVUSGS4630 UnspecifiedClearNONE
6312015-07-22 12:33PSTYesET/TVUSGS4470 UnspecifiedClearNONE
6302015-07-22 11:46PSTYesET/TVUSGS3800 UnspecifiedClearNONE
6292015-07-22 11:40PSTYesET/TVUSGS3620 UnspecifiedClearNONE
6282015-07-22 10:09PSTYesET/TVUSGS1220 UnspecifiedClearNONE
6272015-07-22 10:02PSTYesET/TVUSGS901 UnspecifiedClearNONE
6262015-06-10 17:20PSTYesTV/JDUSGS5390 ExcellentClearNONE
6252015-06-10 17:08PSTYesTV/JDUSGS5580 ExcellentClearNONE
6242015-06-10 17:02PSTYesTV/JDUSGS5480 ExcellentClearNONE
6232015-06-10 16:52PSTYesTV/JDUSGS5370 ExcellentClearNONE
6222015-06-10 14:11PSTYesTV/JDUSGS4690 ExcellentClearNONE
6212015-06-10 14:00PSTYesTV/JDUSGS4520 ExcellentClearNONE
6202015-06-10 13:44PSTYesTV/JDUSGS3920 ExcellentClearNONE
6192015-06-10 13:35PSTYesTV/JDUSGS3610 ExcellentClearNONE
6182015-01-14 17:21PSTYesKM,MVCUSGS5900 Unspecified NONE
6172015-01-14 17:14PSTYesKM,MVCUSGS5790 Unspecified NONE
6162015-01-14 17:07PSTYesKM,MVCUSGS6090 Unspecified NONE
6152015-01-14 16:58PSTYesKM,MVCUSGS5460 Unspecified NONE
6142015-01-14 16:55PSTYesKM,MVCUSGS5360 Unspecified NONE
6132015-01-14 16:45PSTYesKM,MVCUSGS5540 Unspecified NONE
6122015-01-14 16:39PSTYesKM,MVCUSGS5930 Unspecified NONE
6112015-01-14 16:27PSTYesKM,MVCUSGS5430 Unspecified NONE
6102015-01-14 16:23PSTYesKM,MVCUSGS5240 Unspecified NONE
6092015-01-14 16:14PSTYesKM,MVCUSGS4970 Unspecified NONE
6082015-01-14 16:07PSTYesKM,MVCUSGS5760 Unspecified NONE
6072015-01-14 15:55PSTYesKM,MVCUSGS5300 Unspecified NONE
6062015-01-14 15:50PSTYesKM,MVCUSGS5580 Unspecified NONE
6052015-01-14 15:43PSTYesKM,MVCUSGS5360 Unspecified NONE
6042015-01-14 15:36PSTYesKM,MVCUSGS5180 Unspecified NONE
6032015-01-14 15:26PSTYesKM,MVCUSGS5050 Unspecified NONE
6022015-01-14 15:19PSTYesKM,MVCUSGS5070 Unspecified NONE
6012015-01-14 15:06PSTYesKM,MVCUSGS4740 Unspecified NONE
6002015-01-14 14:57PSTYesKM,MVCUSGS4630 Unspecified NONE
5992015-01-14 14:25PSTYesKM,MVCUSGS4130 Unspecified NONE
5982015-01-14 14:12PSTYesKM,MVCUSGS3650 Unspecified NONE
5972015-01-14 14:05PSTYesKM,MVCUSGS3950 Unspecified NONE
5962015-01-14 13:56PSTYesKM,MVCUSGS3760 Unspecified NONE
5952015-01-14 13:50PSTYesKM,MVCUSGS3580 Unspecified NONE
5942015-01-14 13:35PSTYesKM,MVCUSGS3190 Unspecified NONE
5932015-01-14 13:26PSTYesKM,MVCUSGS2950 Unspecified NONE
5922015-01-14 13:18PSTYesKM,MVCUSGS2570 Unspecified NONE
5912015-01-14 12:45PSTYesKM,MVCUSGS791 Unspecified NONE
5902015-01-14 12:40PSTYesKM,MVCUSGS305 Unspecified NONE
5892015-01-14 12:34PSTYesKM,MVCUSGS212 Unspecified NONE
5882015-01-14 12:27PSTYesKM,MVCUSGS-25.0 Unspecified NONE
5872015-01-14 12:21PSTYesKM,MVCUSGS-553 Unspecified NONE
5862015-01-14 12:13PSTYesKM,MVCUSGS-789 Unspecified NONE
5852015-01-14 12:06PSTYesKM,MVCUSGS-1130 Unspecified NONE
5842015-01-14 11:54PSTYesKM,MVCUSGS-1640 Unspecified NONE
5832015-01-14 11:45PSTYesKM,MVCUSGS-1950 Unspecified NONE
5822015-01-14 11:38PSTYesKM,MVCUSGS-2200 Unspecified NONE
5812015-01-14 11:28PSTYesKM,MVCUSGS-2450 Unspecified NONE
5802015-01-14 11:16PSTYesKM,MVCUSGS-2620 Unspecified NONE
5792015-01-14 11:06PSTYesKM,MVCUSGS-2580 Unspecified NONE
5782015-01-14 10:59PSTYesKM,MVCUSGS-3200 Unspecified NONE
5772015-01-14 10:43PSTYesKM,MVCUSGS-3360 Unspecified NONE
5762015-01-14 10:37PSTYesKM,MVCUSGS-3440 Unspecified NONE
5752015-01-14 10:27PSTYesKM,MVCUSGS-3530 Unspecified NONE
5742015-01-14 10:20PSTYesKM,MVCUSGS-3850 Unspecified NONE
5732015-01-14 09:53PSTYesKM,MVCUSGS-4030 Unspecified NONE
5722015-01-14 09:45PSTYesKM,MVCUSGS-3970 Unspecified NONE
5712015-01-14 09:37PSTYesKM,MVCUSGS-4190 Unspecified NONE
5702015-01-14 09:30PSTYesKM,MVCUSGS-4280 Unspecified NONE
5692015-01-14 09:21PSTYesKM,MVCUSGS-4010 Unspecified NONE
5682015-01-14 09:10PSTYesKM,MVCUSGS-4190 Unspecified NONE
5672015-01-14 09:02PSTYesKM,MVCUSGS-4310 Unspecified NONE
5662015-01-14 08:57PSTYesKM,MVCUSGS-4150 Unspecified NONE
5652015-01-14 08:50PSTYesKM,MVCUSGS-4210 Unspecified NONE
5642015-01-14 08:37PSTYesKM,MVCUSGS-4010 Unspecified NONE
5632014-09-04 14:57PSTYesDA/NVUSGS148018.04 Unspecified NONE
5622014-09-04 14:53PSTYesDA/NVUSGS114018.06 Unspecified NONE
5612014-09-04 14:44PSTYesDA/NVUSGS79418.08 Unspecified NONE
5602014-09-04 14:39PSTYesDA/NVUSGS57818.09 Unspecified NONE
5592014-09-04 14:28PSTYesDA/NVUSGS19318.10 Unspecified NONE
5582014-09-04 14:22PSTYesDA/NVUSGS-96.918.11 Unspecified NONE
5572014-06-25 13:21PSTYesYESUSGS-1760 Unspecified NONE
5562014-06-25 13:16PSTYesYESUSGS-1570 Unspecified NONE
5552014-06-25 13:13PSTYesYESUSGS-1540 Unspecified NONE
5542014-06-25 13:06PSTYesYESUSGS-1190 Unspecified NONE
5532014-06-25 13:03PSTYesYESUSGS-1000 Unspecified NONE
5522014-06-25 12:56PSTYesYESUSGS-519 Unspecified NONE
5512014-06-25 12:52PSTYesYESUSGS20.0 Unspecified NONE
5502014-06-25 12:47PSTYesYESUSGS536 Unspecified NONE
5492014-06-25 12:44PSTYesYESUSGS777 Unspecified NONE
5482014-06-25 12:36PSTYesYESUSGS1280 Unspecified NONE
5472014-06-25 12:33PSTYesYESUSGS1830 Unspecified NONE
5462014-06-25 12:29PSTYesYESUSGS2370 Unspecified NONE
5452014-05-07 13:18PSTYesYESUSGS4140 Unspecified NONE
5442014-05-07 13:13PSTYesYESUSGS3940 Unspecified NONE
5432014-05-07 13:05PSTYesYESUSGS4000 Unspecified NONE
5422014-05-07 13:00PSTYesYESUSGS3890 Unspecified NONE
5412014-05-07 12:43PSTYesYESUSGS3340 Unspecified NONE
5402014-05-07 12:35PSTYesYESUSGS3060 Unspecified NONE
5392013-07-12 11:29PSTYesYESUSGS6910 Unspecified NONE
5382013-07-12 11:24PSTYesYESUSGS6910 Unspecified NONE
5372013-07-12 11:19PSTYesYESUSGS6810 Unspecified NONE
5362013-07-12 11:11PSTYesYESUSGS6760 Unspecified NONE
5352013-07-12 11:06PSTYesYESUSGS6650 Unspecified NONE
5342013-07-12 11:01PSTYesYESUSGS6770 Unspecified NONE
5332012-01-04 15:08PSTYesYESUSGS3590 Unspecified NONE
5322012-01-04 15:03PSTYesYESUSGS3390 Unspecified NONE
5312012-01-04 14:58PSTYesYESUSGS3270 Unspecified NONE
5302012-01-04 14:51PSTYesYESUSGS3150 Unspecified NONE
5292012-01-04 14:44PSTYesYESUSGS2570 Unspecified NONE
5282012-01-04 14:35PSTYesYESUSGS2070 Unspecified NONE
5272011-03-21 11:58PSTYesYESUSGS11100 Unspecified NONE
5262011-03-21 11:54PSTYesYESUSGS11100 Unspecified NONE
5252011-03-21 11:50PSTYesYESUSGS11100 Unspecified NONE
5242011-03-21 11:47PSTYesYESUSGS11500 Unspecified NONE
5232011-03-21 11:43PSTYesYESUSGS11100 Unspecified NONE
5222011-03-21 11:39PSTYesYESUSGS11000 Unspecified NONE
5212011-03-21 11:36PSTYesYESUSGS11300 Unspecified NONE
5202011-03-21 11:32PSTYesYESUSGS11000 Unspecified NONE
5192010-01-25 11:55PSTYesEB/CBUSGS332 UnspecifiedUnspecifedNONE
5182010-01-25 11:52PSTYesEB/CBUSGS251 UnspecifiedUnspecifedNONE
5172010-01-25 11:49PSTYesEB/CBUSGS270 UnspecifiedUnspecifedNONE
5162010-01-25 11:46PSTYesEB/CBUSGS308 UnspecifiedUnspecifedNONE
5152010-01-25 11:43PSTYesEB/CBUSGS328 UnspecifiedUnspecifedNONE
5142010-01-25 11:40PSTYesEB/CBUSGS277 UnspecifiedUnspecifedNONE
5132010-01-25 11:38PSTYesEB/CBUSGS272 UnspecifiedUnspecifedNONE
5122010-01-25 11:34PSTYesEB/CBUSGS321 UnspecifiedUnspecifedNONE
5112010-01-25 11:31PSTYesEB/CBUSGS165 UnspecifiedUnspecifedNONE
5102010-01-25 11:28PSTYesEB/CBUSGS-11.7 UnspecifiedUnspecifedNONE
5092009-06-23 18:34PSTYesYESUSGS-926 Unspecified NONE
5082009-06-23 18:30PSTYesYESUSGS-1100 Unspecified NONE
5072009-06-23 18:26PSTYesYESUSGS-1080 Unspecified NONE
5062009-06-23 18:23PSTYesYESUSGS-1330 Unspecified NONE
5052009-06-23 18:19PSTYesYESUSGS-1280 Unspecified NONE
5042009-06-23 18:15PSTYesYESUSGS-1380 Unspecified NONE
5032009-06-23 18:11PSTYesYESUSGS-1380 Unspecified NONE
5022009-06-23 18:07PSTYesYESUSGS-1470 Unspecified NONE
5012009-06-23 18:02PSTYesYESUSGS-1600 Unspecified NONE
5002009-06-23 17:59PSTYesYESUSGS-1670 Unspecified NONE
4992009-06-23 17:56PSTYesYESUSGS-1630 Unspecified NONE
4982009-06-23 17:53PSTYesYESUSGS-1910 Unspecified NONE
4972009-06-23 17:49PSTYesYESUSGS-1820 Unspecified NONE
4962009-06-23 17:47PSTYesYESUSGS-1950 Unspecified NONE
4952009-06-23 17:42PSTYesYESUSGS-1950 Unspecified NONE
4942009-06-23 17:38PSTYesYESUSGS-1970 Unspecified NONE
4932009-06-23 17:26PSTYesYESUSGS-2060 Unspecified NONE
4922009-06-23 17:23PSTYesYESUSGS-2080 Unspecified NONE
4912009-06-23 17:20PSTYesYESUSGS-2150 Unspecified NONE
4902009-06-23 17:16PSTYesYESUSGS-2130 Unspecified NONE
4892009-06-23 17:11PSTYesYESUSGS-2130 Unspecified NONE
4882009-06-23 17:08PSTYesYESUSGS-2160 Unspecified NONE
4872009-06-23 17:05PSTYesYESUSGS-2260 Unspecified NONE
4862009-06-23 16:57PSTYesYESUSGS-2390 Unspecified NONE
4852009-06-23 16:53PSTYesYESUSGS-2380 Unspecified NONE
4842009-06-23 16:48PSTYesYESUSGS-2580 Unspecified NONE
4832009-06-23 16:44PSTYesYESUSGS-2490 Unspecified NONE
4822009-06-23 16:41PSTYesYESUSGS-2490 Unspecified NONE
4812009-06-23 16:38PSTYesYESUSGS-2610 Unspecified NONE
4802009-06-23 16:35PSTYesYESUSGS-2760 Unspecified NONE
4792009-06-23 16:30PSTYesYESUSGS-2740 Unspecified NONE
4782009-06-23 16:27PSTYesYESUSGS-2910 Unspecified NONE
4772009-06-23 16:11PSTYesYESUSGS-2960 Unspecified NONE
4762009-06-23 16:07PSTYesYESUSGS-3220 Unspecified NONE
4752009-06-23 16:01PSTYesYESUSGS-3100 Unspecified NONE
4742009-06-23 15:58PSTYesYESUSGS-3170 Unspecified NONE
4732009-06-23 15:54PSTYesYESUSGS-3310 Unspecified NONE
4722009-06-23 15:29PSTYesYESUSGS-2910 Unspecified NONE
4712009-06-23 15:26PSTYesYESUSGS-2900 Unspecified NONE
4702009-06-23 15:22PSTYesYESUSGS-2820 Unspecified NONE
4692009-06-23 15:19PSTYesYESUSGS-2770 Unspecified NONE
4682009-06-23 15:16PSTYesYESUSGS-2650 Unspecified NONE
4672009-06-23 15:13PSTYesYESUSGS-2500 Unspecified NONE
4662009-06-23 15:10PSTYesYESUSGS-2450 Unspecified NONE
4652009-06-23 15:05PSTYesYESUSGS-2220 Unspecified NONE
4642009-06-23 14:50PSTYesYESUSGS-1200 Unspecified NONE
4632009-06-23 14:47PSTYesYESUSGS-948 Unspecified NONE
4622009-06-23 14:42PSTYesYESUSGS-688 Unspecified NONE
4612009-06-23 14:39PSTYesYESUSGS-390 Unspecified NONE
4602009-06-23 14:36PSTYesYESUSGS-92.3 Unspecified NONE
4592009-06-23 14:33PSTYesYESUSGS155 Unspecified NONE
4582009-06-23 14:29PSTYesYESUSGS494 Unspecified NONE
4572009-06-23 14:26PSTYesYESUSGS824 Unspecified NONE
4562009-06-23 14:23PSTYesYESUSGS1180 Unspecified NONE
4552009-06-23 14:19PSTYesYESUSGS1530 Unspecified NONE
4542009-06-23 14:16PSTYesYESUSGS1860 Unspecified NONE
4532009-06-23 14:12PSTYesYESUSGS2310 Unspecified NONE
4522009-06-23 14:09PSTYesYESUSGS2570 Unspecified NONE
4512009-06-23 14:05PSTYesYESUSGS2880 Unspecified NONE
4502009-06-23 14:02PSTYesYESUSGS3220 Unspecified NONE
4492009-06-23 13:58PSTYesYESUSGS3600 Unspecified NONE
4482009-06-23 13:53PSTYesYESUSGS3900 Unspecified NONE
4472009-06-23 13:49PSTYesYESUSGS4150 Unspecified NONE
4462009-06-23 13:46PSTYesYESUSGS4360 Unspecified NONE
4452009-06-23 13:43PSTYesYESUSGS4650 Unspecified NONE
4442009-06-23 13:40PSTYesYESUSGS4990 Unspecified NONE
4432009-06-23 13:36PSTYesYESUSGS4970 Unspecified NONE
4422009-06-23 13:31PSTYesYESUSGS5370 Unspecified NONE
4412009-06-23 13:27PSTYesYESUSGS5500 Unspecified NONE
4402009-06-23 13:19PSTYesYESUSGS5760 Unspecified NONE
4392009-06-23 13:15PSTYesYESUSGS5910 Unspecified NONE
4382009-06-23 13:10PSTYesYESUSGS5790 Unspecified NONE
4372009-06-23 13:06PSTYesYESUSGS6010 Unspecified NONE
4362009-06-23 13:02PSTYesYESUSGS6300 Unspecified NONE
4352009-06-23 12:57PSTYesYESUSGS6170 Unspecified NONE
4342009-06-23 12:50PSTYesYESUSGS6610 Unspecified NONE
4332009-06-23 12:46PSTYesYESUSGS6360 Unspecified NONE
4322009-06-23 12:39PSTYesYESUSGS6520 Unspecified NONE
4312009-06-23 12:34PSTYesYESUSGS6540 Unspecified NONE
4302009-06-23 12:29PSTYesYESUSGS6530 Unspecified NONE
4292009-06-23 12:25PSTYesYESUSGS6510 Unspecified NONE
4282009-06-23 12:20PSTYesYESUSGS6780 Unspecified NONE
4272009-06-23 12:16PSTYesYESUSGS6490 Unspecified NONE
4262009-06-23 12:13PSTYesYESUSGS6730 Unspecified NONE
4252009-06-23 12:09PSTYesYESUSGS6770 Unspecified NONE
4242009-06-23 12:04PSTYesYESUSGS6800 Unspecified NONE
4232009-06-23 12:01PSTYesYESUSGS6770 Unspecified NONE
4222009-06-23 11:34PSTYesYESUSGS6820 Unspecified NONE
4212009-06-23 11:30PSTYesYESUSGS6650 Unspecified NONE
4202009-06-23 11:24PSTYesYESUSGS6790 Unspecified NONE
4192009-06-23 11:20PSTYesYESUSGS6600 Unspecified NONE
4182009-06-23 11:16PSTYesYESUSGS6590 Unspecified NONE
4172009-06-23 11:10PSTYesYESUSGS6620 Unspecified NONE
4162009-06-23 11:05PSTYesYESUSGS6730 Unspecified NONE
4152009-06-23 11:02PSTYesYESUSGS6330 Unspecified NONE
4142009-06-23 10:21PSTYesYESUSGS6570 Unspecified NONE
4132009-06-23 10:17PSTYesYESUSGS6620 Unspecified NONE
4122009-06-23 10:12PSTYesYESUSGS6510 Unspecified NONE
4112009-06-23 10:08PSTYesYESUSGS6390 Unspecified NONE
4102009-06-23 10:03PSTYesYESUSGS6330 Unspecified NONE
4092009-06-23 09:59PSTYesYESUSGS6560 Unspecified NONE
4082009-06-23 09:49PSTYesYESUSGS6680 Unspecified NONE
4072009-06-23 09:45PSTYesYESUSGS6400 Unspecified NONE
4062009-06-23 09:22PSTYesYESUSGS6420 Unspecified NONE
4052009-06-23 09:17PSTYesYESUSGS6220 Unspecified NONE
4042009-06-23 09:13PSTYesYESUSGS6350 Unspecified NONE
4032009-06-23 09:10PSTYesYESUSGS6410 Unspecified NONE
4022009-06-23 09:05PSTYesYESUSGS6230 Unspecified NONE
4012009-06-23 09:01PSTYesYESUSGS6430 Unspecified NONE
4002009-06-23 08:56PSTYesYESUSGS6490 Unspecified NONE
3992009-06-23 08:52PSTYesYESUSGS6330 Unspecified NONE
3982009-06-23 08:48PSTYesYESUSGS6340 Unspecified NONE
3972009-06-23 08:44PSTYesYESUSGS6110 Unspecified NONE
3962009-06-23 08:39PSTYesYESUSGS6140 Unspecified NONE
3952009-06-23 08:36PSTYesYESUSGS5960 Unspecified NONE
3942009-06-23 08:16PSTYesYESUSGS5600 Unspecified NONE
3932009-06-23 08:13PSTYesYESUSGS5580 Unspecified NONE
3922009-06-23 08:09PSTYesYESUSGS5510 Unspecified NONE
3912009-06-23 08:05PSTYesYESUSGS5360 Unspecified NONE
3902009-06-23 08:00PSTYesYESUSGS5380 Unspecified NONE
3892009-06-23 07:57PSTYesYESUSGS5420 Unspecified NONE
3882009-06-23 07:48PSTYesYESUSGS5200 Unspecified NONE
3872009-06-23 07:44PSTYesYESUSGS4780 Unspecified NONE
3862009-06-23 07:40PSTYesYESUSGS4880 Unspecified NONE
3852009-06-23 07:36PSTYesYESUSGS4760 Unspecified NONE
3842009-06-23 07:32PSTYesYESUSGS4750 Unspecified NONE
3832009-06-23 07:29PSTYesYESUSGS4790 Unspecified NONE
3822009-06-23 07:25PSTYesYESUSGS4630 Unspecified NONE
3812009-06-23 07:21PSTYesYESUSGS4550 Unspecified NONE
3802009-06-23 07:11PSTYesYESUSGS4400 Unspecified NONE
3792009-06-23 07:08PSTYesYESUSGS4370 Unspecified NONE
3782009-06-23 07:04PSTYesYESUSGS4330 Unspecified NONE
3772009-06-23 07:01PSTYesYESUSGS4140 Unspecified NONE
3762009-06-23 06:39PSTYesYESUSGS4090 Unspecified NONE
3752009-06-23 06:36PSTYesYESUSGS4080 Unspecified NONE
3742009-06-23 06:31PSTYesYESUSGS4040 Unspecified NONE
3732009-06-23 06:28PSTYesYESUSGS4140 Unspecified NONE
3722009-06-23 06:24PSTYesYESUSGS3980 Unspecified NONE
3712009-06-23 06:20PSTYesYESUSGS4050 Unspecified NONE
3702009-06-23 06:17PSTYesYESUSGS4090 Unspecified NONE
3692009-06-23 06:13PSTYesYESUSGS3960 Unspecified NONE
3682009-06-23 06:09PSTYesYESUSGS3660 Unspecified NONE
3672009-06-23 06:06PSTYesYESUSGS3850 Unspecified NONE
3662009-06-23 06:02PSTYesYESUSGS3690 Unspecified NONE
3652009-06-23 05:59PSTYesYESUSGS3510 Unspecified NONE
3642009-03-13 11:37PSTYesYESUSGS6730 Unspecified NONE
3632009-03-13 11:33PSTYesYESUSGS6660 Unspecified NONE
3622009-03-13 11:27PSTYesYESUSGS6770 Unspecified NONE
3612009-03-13 11:23PSTYesYESUSGS6600 Unspecified NONE
3602009-03-13 11:19PSTYesYESUSGS6660 Unspecified NONE
3592009-03-13 11:15PSTYesYESUSGS6520 Unspecified NONE
3582008-12-12 13:52PSTYesPHK/BJSUSGS-315018.29 Unspecified NONE
3572008-12-12 13:47PSTYesPHK/BJSUSGS-305018.25 Unspecified NONE
3562008-12-12 13:42PSTYesPHK/BJSUSGS-328018.21 Unspecified NONE
3552008-12-12 13:33PSTYesPHK/BJSUSGS-326018.13 Unspecified NONE
3542008-12-12 13:33PSTYesPHK/BJSUSGS-326018.13 Unspecified NONE
3532008-12-12 13:28PSTYesPHK/BJSUSGS-330018.09 Unspecified NONE
3522008-12-12 13:24PSTYesPHK/BJSUSGS-324018.05 Unspecified NONE
3512008-12-12 13:18PSTYesPHK/BJSUSGS-342017.99 Unspecified NONE
3502008-12-12 13:13PSTYesPHK/BJSUSGS-343017.95 Unspecified NONE
3492008-12-12 12:58PSTYesPHK/BJSUSGS-349017.80 Unspecified NONE
3482008-06-17 18:13PSTYesPSx/PKxUSGS44317.30 Unspecified NONE
3472008-06-17 18:08PSTYesPSx/PKxUSGS38517.29 Unspecified NONE
3462008-06-17 18:04PSTYesPSx/PKxUSGS31117.28 Unspecified NONE
3452008-06-17 18:00PSTYesPSx/PKxUSGS25517.27 Unspecified NONE
3442008-06-17 17:56PSTYesPSx/PKxUSGS29.017.26 Unspecified NONE
3432008-06-17 17:46PSTYesPSx/PKxUSGS-12617.22 Unspecified NONE
3422008-06-17 17:43PSTYesPSx/PKxUSGS-17817.20 Unspecified NONE
3412008-06-17 17:39PSTYesPSx/PKxUSGS-15917.19 Unspecified NONE
3402008-06-17 17:35PSTYesPSx/PKxUSGS-31717.18 Unspecified NONE
3392008-06-17 17:25PSTYesPSx/PKxUSGS-54017.14 Unspecified NONE
3382008-06-17 17:21PSTYesPSx/PKxUSGS-58717.13 Unspecified NONE
3372008-06-17 17:06PSTYesPSx/PKxUSGS-77117.07 Unspecified NONE
3362008-06-17 17:01PSTYesPSx/PKxUSGS-92217.05 Unspecified NONE
3352008-06-17 16:49PSTYesPSx/PKxUSGS-104016.97 Unspecified NONE
3342008-06-17 16:45PSTYesPSx/PKxUSGS-101016.95 Unspecified NONE
3332008-06-17 16:36PSTYesPSx/PKxUSGS-110016.90 Unspecified NONE
3322008-06-17 16:32PSTYesPSx/PKxUSGS-124016.87 Unspecified NONE
3312008-06-17 16:20PSTYesPSx/PKxUSGS-129016.79 Unspecified NONE
3302008-06-17 16:16PSTYesPSx/PKxUSGS-128016.76 Unspecified NONE
3292008-06-17 16:06PSTYesPSx/PKxUSGS-152016.69 Unspecified NONE
3282008-06-17 16:03PSTYesPSx/PKxUSGS-151016.66 Unspecified NONE
3272008-06-17 15:59PSTYesPSx/PKxUSGS-165016.63 Unspecified NONE
3262008-06-17 15:55PSTYesPSx/PKxUSGS-156016.61 Unspecified NONE
3252008-06-17 15:48PSTYesPSx/PKxUSGS-199016.55 Unspecified NONE
3242008-06-17 15:43PSTYesPSx/PKxUSGS-190016.51 Unspecified NONE
3232008-06-17 15:35PSTYesPSx/PKxUSGS-214016.44 Unspecified NONE
3222008-06-17 15:22PSTYesPSx/PKxUSGS-232016.34 Unspecified NONE
3212008-06-17 15:16PSTYesPSx/PKxUSGS-254016.29 Unspecified NONE
3202008-06-17 15:13PSTYesPSx/PKxUSGS-241016.26 Unspecified NONE
3192008-06-17 15:09PSTYesPSx/PKxUSGS-252016.22 Unspecified NONE
3182008-06-17 15:01PSTYesPSx/PKxUSGS-254016.15 Unspecified NONE
3172008-06-17 14:56PSTYesPSx/PKxUSGS-253016.11 Unspecified NONE
3162008-06-17 14:41PSTYesPSx/PKxUSGS-240015.96 Unspecified NONE
3152008-06-17 14:37PSTYesPSx/PKxUSGS-236015.92 Unspecified NONE
3142008-06-17 14:26PSTYesPSx/PKxUSGS-226015.82 Unspecified NONE
3132008-06-17 14:22PSTYesPSx/PKxUSGS-212015.78 Unspecified NONE
3122008-06-17 14:14PSTYesPSx/PKxUSGS-195015.71 Unspecified NONE
3112008-06-17 14:10PSTYesPSx/PKxUSGS-179015.67 Unspecified NONE
3102008-06-17 13:59PSTYesPSx/PKxUSGS-128015.57 Unspecified NONE
3092008-06-17 13:55PSTYesPSx/PKxUSGS-100015.54 Unspecified NONE
3082008-06-17 13:51PSTYesPSx/PKxUSGS-79515.50 Unspecified NONE
3072008-06-17 13:47PSTYesPSx/PKxUSGS-35515.46 Unspecified NONE
3062008-06-17 13:42PSTYesPSx/PKxUSGS-39.015.42 Unspecified NONE
3052008-06-17 13:37PSTYesPSx/PKxUSGS39615.37 Unspecified NONE
3042008-06-17 13:32PSTYesPSx/PKxUSGS85215.33 Unspecified NONE
3032008-06-17 13:28PSTYesPSx/PKxUSGS114015.29 Unspecified NONE
3022008-06-17 13:24PSTYesPSx/PKxUSGS154015.26 Unspecified NONE
3012008-06-17 13:20PSTYesPSx/PKxUSGS183015.22 Unspecified NONE
3002008-06-17 13:15PSTYesPSx/PKxUSGS225015.18 Unspecified NONE
2992008-06-17 13:11PSTYesPSx/PKxUSGS268015.15 Unspecified NONE
2982008-06-17 13:07PSTYesPSx/PKxUSGS298015.12 Unspecified NONE
2972008-06-17 13:04PSTYesPSx/PKxUSGS310015.10 Unspecified NONE
2962008-06-17 13:00PSTYesPSx/PKxUSGS352015.07 Unspecified NONE
2952008-06-17 12:56PSTYesPSx/PKxUSGS375015.06 Unspecified NONE
2942008-06-17 12:52PSTYesPSx/PKxUSGS410015.04 Unspecified NONE
2932008-06-17 12:47PSTYesPSx/PKxUSGS417015.02 Unspecified NONE
2922008-06-17 12:43PSTYesPSx/PKxUSGS450015.01 Unspecified NONE
2912008-06-17 12:39PSTYesPSx/PKxUSGS467015.01 Unspecified NONE
2902008-06-17 12:31PSTYesPSx/PKxUSGS488015.02 Unspecified NONE
2892008-06-17 12:27PSTYesPSx/PKxUSGS518015.02 Unspecified NONE
2882008-06-17 12:23PSTYesPSx/PKxUSGS539015.02 Unspecified NONE
2872008-06-17 12:17PSTYesPSx/PKxUSGS542015.03 Unspecified NONE
2862008-06-17 12:13PSTYesPSx/PKxUSGS552015.04 Unspecified NONE
2852008-06-17 12:10PSTYesPSx/PKxUSGS574015.05 Unspecified NONE
2842008-06-17 11:57PSTYesPSx/PKxUSGS580015.12 Unspecified NONE
2832008-06-17 11:52PSTYesPSx/PKxUSGS609015.14 Unspecified NONE
2822008-06-17 11:48PSTYesPSx/PKxUSGS600015.16 Unspecified NONE
2812008-06-17 11:44PSTYesPSx/PKxUSGS599015.18 Unspecified NONE
2802008-06-17 11:40PSTYesPSx/PKxUSGS602015.20 Unspecified NONE
2792008-06-17 11:35PSTYesPSx/PKxUSGS602015.23 Unspecified NONE
2782008-06-17 11:28PSTYesPSx/PKxUSGS626015.27 Unspecified NONE
2772008-06-17 11:23PSTYesPSx/PKxUSGS618015.31 Unspecified NONE
2762008-06-17 11:13PSTYesPSx/PKxUSGS617015.39 Unspecified NONE
2752008-06-17 11:08PSTYesPSx/PKxUSGS618015.42 Unspecified NONE
2742008-06-17 11:04PSTYesPSx/PKxUSGS614015.45 Unspecified NONE
2732008-06-17 11:00PSTYesPSx/PKxUSGS606015.48 Unspecified NONE
2722008-06-17 10:56PSTYesPSx/PKxUSGS636015.51 Unspecified NONE
2712008-06-17 10:52PSTYesPSx/PKxUSGS616015.54 Unspecified NONE
2702008-06-17 10:48PSTYesPSx/PKxUSGS610015.56 Unspecified NONE
2692008-06-17 10:45PSTYesPSx/PKxUSGS631015.58 Unspecified NONE
2682008-06-17 10:36PSTYesPSx/PKxUSGS630015.66 Unspecified NONE
2672008-06-17 10:32PSTYesPSx/PKxUSGS603015.69 Unspecified NONE
2662008-06-17 10:17PSTYesPSx/PKxUSGS598015.82 Unspecified NONE
2652008-06-17 10:13PSTYesPSx/PKxUSGS601015.84 Unspecified NONE
2642008-06-17 09:55PSTYesPSx/PKxUSGS610015.99 Unspecified NONE
2632008-06-17 09:51PSTYesPSx/PKxUSGS599016.02 Unspecified NONE
2622008-06-17 09:48PSTYesPSx/PKxUSGS589016.05 Unspecified NONE
2612008-06-17 09:44PSTYesPSx/PKxUSGS603016.08 Unspecified NONE
2602008-06-17 09:22PSTYesPSx/PKxUSGS599016.25 Unspecified NONE
2592008-06-17 09:18PSTYesPSx/PKxUSGS596016.28 Unspecified NONE
2582008-06-17 09:08PSTYesPSx/PKxUSGS600016.35 Unspecified NONE
2572008-06-17 09:01PSTYesPSx/PKxUSGS596016.41 Unspecified NONE
2562008-06-17 08:57PSTYesPSx/PKxUSGS609016.44 Unspecified NONE
2552008-06-17 08:54PSTYesPSx/PKxUSGS589016.48 Unspecified NONE
2542008-06-17 08:50PSTYesPSx/PKxUSGS586016.51 Unspecified NONE
2532008-06-17 08:46PSTYesPSx/PKxUSGS606016.54 Unspecified NONE
2522008-06-17 08:43PSTYesPSx/PKxUSGS605016.56 Unspecified NONE
2512008-06-17 08:31PSTYesPSx/PKxUSGS602016.65 Unspecified NONE
2502008-06-17 08:28PSTYesPSx/PKxUSGS592016.68 Unspecified NONE
2492008-06-17 08:24PSTYesPSx/PKxUSGS588016.70 Unspecified NONE
2482008-06-17 08:20PSTYesPSx/PKxUSGS582016.73 Unspecified NONE
2472008-06-17 08:05PSTYesPSx/PKxUSGS595016.86 Unspecified NONE
2462008-06-17 08:01PSTYesPSx/PKxUSGS606016.90 Unspecified NONE
2452008-06-17 07:51PSTYesPSx/PKxUSGS591016.97 Unspecified NONE
2442008-06-17 07:47PSTYesPSx/PKxUSGS583016.99 Unspecified NONE
2432008-06-17 07:34PSTYesPSx/PKxUSGS577017.11 Unspecified NONE
2422008-06-17 07:30PSTYesPSx/PKxUSGS577017.14 Unspecified NONE
2412008-06-17 07:27PSTYesPSx/PKxUSGS594017.17 Unspecified NONE
2402008-06-17 07:23PSTYesPSx/PKxUSGS597017.20 Unspecified NONE
2392008-06-17 07:20PSTYesPSx/PKxUSGS568017.22 Unspecified NONE
2382008-06-17 07:16PSTYesPSx/PKxUSGS574017.25 Unspecified NONE
2372008-06-17 07:13PSTYesPSx/PKxUSGS563017.28 Unspecified NONE
2362008-06-17 07:10PSTYesPSx/PKxUSGS541017.30 Unspecified NONE
2352008-06-17 07:06PSTYesPSx/PKxUSGS558017.33 Unspecified NONE
2342008-06-17 06:47PSTYesPSx/PKxUSGS510017.49 Unspecified NONE
2332008-03-19 09:15PSTYesBJS/CRBUSGS557015.18 Unspecified NONE
2322008-03-19 09:10PSTYesBJS/CRBUSGS557015.21 Unspecified NONE
2312008-03-19 09:06PSTYesBJS/CRBUSGS569015.23 Unspecified NONE
2302008-03-19 09:01PSTYesBJS/CRBUSGS567015.26 Unspecified NONE
2292008-03-19 08:56PSTYesBJS/CRBUSGS554015.28 Unspecified NONE
2282008-03-19 08:51PSTYesBJS/CRBUSGS569015.31 Unspecified NONE
2272008-03-19 08:47PSTYesBJS/CRBUSGS568015.34 Unspecified NONE
2262008-03-19 08:42PSTYesBJS/CRBUSGS569015.37 Unspecified NONE
2252008-03-19 08:37PSTYesBJS/CRBUSGS559015.40 Unspecified NONE
2242008-03-19 08:33PSTYesBJS/CRBUSGS562015.43 Unspecified NONE
2232008-01-15 10:42PSTYesBJS/TMGUSGS-133017.82 Unspecified NONE
2222008-01-15 10:37PSTYesBJS/TMGUSGS-157017.81 Unspecified NONE
2212008-01-15 10:32PSTYesBJS/TMGUSGS-179017.80 Unspecified NONE
2202008-01-15 10:27PSTYesBJS/TMGUSGS-198017.79 Unspecified NONE
2192008-01-15 10:22PSTYesBJS/TMGUSGS-209017.77 Unspecified NONE
2182008-01-15 10:18PSTYesBJS/TMGUSGS-224017.76 Unspecified NONE
2172008-01-15 10:13PSTYesBJS/TMGUSGS-250017.74 Unspecified NONE
2162008-01-15 10:07PSTYesBJS/TMGUSGS-254017.72 Unspecified NONE
2152008-01-15 10:02PSTYesBJS/TMGUSGS-269017.70 Unspecified NONE
2142008-01-15 09:56PSTYesBJS/TMGUSGS-286017.67 Unspecified NONE
2132007-11-27 16:43PSTYesJEG/CRBUSGS-251017.95 Unspecified NONE
2122007-11-27 16:40PSTYesJEG/CRBUSGS-263017.92 Unspecified NONE
2112007-11-27 16:37PSTYesJEG/CRBUSGS-265017.89 Unspecified NONE
2102007-11-27 16:33PSTYesJEG/CRBUSGS-282017.86 Unspecified NONE
2092007-11-27 16:29PSTYesJEG/CRBUSGS-296017.82 Unspecified NONE
2082007-11-27 16:25PSTYesJEG/CRBUSGS-288017.78 Unspecified NONE
2072007-08-02 16:56PSTYesMRS/RRxUSGS-239016.85 Unspecified NONE
2062007-08-02 16:53PSTYesMRS/RRxUSGS-254016.81 Unspecified NONE
2052007-08-02 16:49PSTYesMRS/RRxUSGS-258016.77 Unspecified NONE
2042007-08-02 16:46PSTYesMRS/RRxUSGS-252016.72 Unspecified NONE
2032007-08-02 16:42PSTYesMRS/RRxUSGS-250016.69 Unspecified NONE
2022007-08-02 16:38PSTYesMRS/RRxUSGS-244016.65 Unspecified NONE
2012007-08-02 16:35PSTYesMRS/RRxUSGS-225016.61 Unspecified NONE
2002007-08-02 16:31PSTYesMRS/RRxUSGS-235016.56 Unspecified NONE
1992007-08-02 16:27PSTYesMRS/RRxUSGS-221016.52 Unspecified NONE
1982007-08-02 16:23PSTYesMRS/RRxUSGS-220016.48 Unspecified NONE
1972007-08-02 16:20PSTYesMRS/RRxUSGS-205016.43 Unspecified NONE
1962007-08-02 16:15PSTYesMRS/RRxUSGS-194016.38 Unspecified NONE
1952007-08-02 16:11PSTYesMRS/RRxUSGS-188016.34 Unspecified NONE
1942007-08-02 16:08PSTYesMRS/RRxUSGS-165016.31 Unspecified NONE
1932007-08-02 16:05PSTYesMRS/RRxUSGS-157016.28 Unspecified NONE
1922007-08-02 16:02PSTYesMRS/RRxUSGS-145016.26 Unspecified NONE
1912007-08-02 15:59PSTYesMRS/RRxUSGS-122016.23 Unspecified NONE
1902007-08-02 15:56PSTYesMRS/RRxUSGS-97716.19 Unspecified NONE
1892007-08-02 15:51PSTYesMRS/RRxUSGS-75516.14 Unspecified NONE
1882007-08-02 15:47PSTYesMRS/RRxUSGS-39416.10 Unspecified NONE
1872007-08-02 15:44PSTYesMRS/RRxUSGS-17516.07 Unspecified NONE
1862007-08-02 15:40PSTYesMRS/RRxUSGS19416.04 Unspecified NONE
1852007-08-02 15:36PSTYesMRS/RRxUSGS27516.00 Unspecified NONE
1842007-08-02 15:32PSTYesMRS/RRxUSGS63615.96 Unspecified NONE
1832007-08-02 15:28PSTYesMRS/RRxUSGS89515.92 Unspecified NONE
1822007-08-02 15:23PSTYesMRS/RRxUSGS136015.88 Unspecified NONE
1812007-08-02 15:19PSTYesMRS/RRxUSGS187015.84 Unspecified NONE
1802007-08-02 15:15PSTYesMRS/RRxUSGS227015.78 Unspecified NONE
1792007-08-02 15:10PSTYesMRS/RRxUSGS280015.74 Unspecified NONE
1782007-08-02 15:06PSTYesMRS/RRxUSGS318015.69 Unspecified NONE
1772007-08-02 15:01PSTYesMRS/RRxUSGS367015.65 Unspecified NONE
1762007-08-02 14:56PSTYesMRS/RRxUSGS411015.60 Unspecified NONE
1752007-08-02 14:53PSTYesMRS/RRxUSGS445015.58 Unspecified NONE
1742007-08-02 14:50PSTYesMRS/RRxUSGS463015.56 Unspecified NONE
1732007-08-02 14:47PSTYesMRS/RRxUSGS494015.54 Unspecified NONE
1722007-08-02 14:44PSTYesMRS/RRxUSGS508015.53 Unspecified NONE
1712007-08-02 14:40PSTYesMRS/RRxUSGS536015.54 Unspecified NONE
1702007-08-02 14:36PSTYesMRS/RRxUSGS555015.52 Unspecified NONE
1692007-08-02 14:33PSTYesMRS/RRxUSGS574015.51 Unspecified NONE
1682007-08-02 14:29PSTYesMRS/RRxUSGS589015.51 Unspecified NONE
1672007-08-02 14:26PSTYesMRS/RRxUSGS610015.51 Unspecified NONE
1662007-08-02 14:23PSTYesMRS/RRxUSGS608015.51 Unspecified NONE
1652007-08-02 14:20PSTYesMRS/RRxUSGS625015.51 Unspecified NONE
1642007-08-02 14:17PSTYesMRS/RRxUSGS621015.52 Unspecified NONE
1632007-08-02 14:14PSTYesMRS/RRxUSGS645015.52 Unspecified NONE
1622007-08-02 14:11PSTYesMRS/RRxUSGS647015.53 Unspecified NONE
1612007-08-02 14:07PSTYesMRS/RRxUSGS662015.55 Unspecified NONE
1602007-08-02 14:03PSTYesMRS/RRxUSGS662015.58 Unspecified NONE
1592007-08-02 14:00PSTYesMRS/RRxUSGS676015.59 Unspecified NONE
1582007-08-02 13:57PSTYesMRS/RRxUSGS675015.59 Unspecified NONE
1572007-08-02 13:52PSTYesMRS/RRxUSGS681015.61 Unspecified NONE
1562007-08-02 13:48PSTYesMRS/RRxUSGS682015.63 Unspecified NONE
1552007-08-02 13:44PSTYesMRS/RRxUSGS682015.64 Unspecified NONE
1542007-08-02 13:41PSTYesMRS/RRxUSGS683015.67 Unspecified NONE
1532007-08-02 13:36PSTYesMRS/RRxUSGS708015.71 Unspecified NONE
1522007-08-02 13:32PSTYesMRS/RRxUSGS672015.73 Unspecified NONE
1512007-08-02 12:56PSTYesMRS/RRxUSGS700016.00 Unspecified NONE
1502007-08-02 12:51PSTYesMRS/RRxUSGS709016.02 Unspecified NONE
1492007-08-02 12:47PSTYesMRS/RRxUSGS718016.05 Unspecified NONE
1482007-08-02 12:43PSTYesMRS/RRxUSGS678016.08 Unspecified NONE
1472007-08-02 12:39PSTYesMRS/RRxUSGS697016.11 Unspecified NONE
1462007-08-02 12:34PSTYesMRS/RRxUSGS696016.15 Unspecified NONE
1452007-08-02 12:30PSTYesMRS/RRxUSGS702016.18 Unspecified NONE
1442007-08-02 12:26PSTYesMRS/RRxUSGS692016.20 Unspecified NONE
1432007-08-02 12:23PSTYesMRS/RRxUSGS693016.23 Unspecified NONE
1422007-08-02 12:19PSTYesMRS/RRxUSGS685016.26 Unspecified NONE
1412007-08-02 12:14PSTYesMRS/RRxUSGS709016.30 Unspecified NONE
1402007-08-02 12:09PSTYesMRS/RRxUSGS692016.34 Unspecified NONE
1392007-08-02 12:05PSTYesMRS/RRxUSGS715016.37 Unspecified NONE
1382007-08-02 12:00PSTYesMRS/RRxUSGS706016.41 Unspecified NONE
1372007-08-02 11:56PSTYesMRS/RRxUSGS686016.45 Unspecified NONE
1362007-08-02 11:51PSTYesMRS/RRxUSGS697016.47 Unspecified NONE
1352007-08-02 11:46PSTYesMRS/RRxUSGS697016.51 Unspecified NONE
1342007-08-02 11:41PSTYesMRS/RRxUSGS697016.55 Unspecified NONE
1332007-08-02 11:38PSTYesMRS/RRxUSGS709016.58 Unspecified NONE
1322007-08-02 11:33PSTYesMRS/RRxUSGS697016.62 Unspecified NONE
1312007-07-26 15:22PSTYesTMG/NBLUSGS-27717.31 Unspecified NONE
1302007-07-26 15:17PSTYesTMG/NBLUSGS-31117.29 Unspecified NONE
1292007-07-26 14:59PSTYesTMG/NBLUSGS-49817.19 Unspecified NONE
1282007-07-26 14:54PSTYesTMG/NBLUSGS-58417.16 Unspecified NONE
1272007-07-26 14:47PSTYesTMG/NBLUSGS-67917.12 Unspecified NONE
1262007-07-26 14:41PSTYesTMG/NBLUSGS-82817.09 Unspecified NONE
1252007-07-26 14:30PSTYesTMG/NBLUSGS-102017.02 Unspecified NONE
1242007-07-26 14:22PSTYesTMG/NBLUSGS-103016.95 Unspecified NONE
1232007-07-26 14:14PSTYesTMG/NBLUSGS-115016.89 Unspecified NONE
1222007-07-26 14:04PSTYesTMG/NBLUSGS-145016.81 Unspecified NONE
1212007-07-26 13:58PSTYesTMG/NBLUSGS-150016.77 Unspecified NONE
1202007-07-26 13:53PSTYesTMG/NBLUSGS-148016.73 Unspecified NONE
1192007-07-26 13:50PSTYesTMG/NBLUSGS-169016.70 Unspecified NONE
1182007-07-26 13:46PSTYesTMG/NBLUSGS-164016.67 Unspecified NONE
1172007-07-26 13:20PSTYesTMG/NBLUSGS-200016.45 Unspecified NONE
1162007-07-26 13:15PSTYesTMG/NBLUSGS-207016.41 Unspecified NONE
1152007-07-26 13:11PSTYesTMG/NBLUSGS-205016.37 Unspecified NONE
1142007-07-26 13:05PSTYesTMG/NBLUSGS-208016.31 Unspecified NONE
1132007-07-26 12:59PSTYesTMG/NBLUSGS-208016.26 Unspecified NONE
1122007-07-26 12:54PSTYesTMG/NBLUSGS-198016.21 Unspecified NONE
1112007-07-26 12:42PSTYesTMG/NBLUSGS-190016.09 Unspecified NONE
1102007-07-26 12:37PSTYesTMG/NBLUSGS-178016.05 Unspecified NONE
1092007-07-26 12:32PSTYesTMG/NBLUSGS-167016.00 Unspecified NONE
1082007-07-26 12:25PSTYesTMG/NBLUSGS-129015.94 Unspecified NONE
1072007-07-26 12:14PSTYesTMG/NBLUSGS-92815.83 Unspecified NONE
1062007-07-26 12:07PSTYesTMG/NBLUSGS-50315.77 Unspecified NONE
1052007-07-26 12:00PSTYesTMG/NBLUSGS-30.015.71 Unspecified NONE
1042007-07-26 11:55PSTYesTMG/NBLUSGS45115.67 Unspecified NONE
1032007-07-26 11:50PSTYesTMG/NBLUSGS67215.63 Unspecified NONE
1022007-07-26 11:44PSTYesTMG/NBLUSGS119015.57 Unspecified NONE
1012007-07-26 11:37PSTYesTMG/NBLUSGS175015.51 Unspecified NONE
1002007-07-26 11:32PSTYesTMG/NBLUSGS226015.46 Unspecified NONE
992007-07-26 11:27PSTYesTMG/NBLUSGS274015.41 Unspecified NONE
982007-07-26 11:20PSTYesTMG/NBLUSGS322015.36 Unspecified NONE
972007-07-26 11:15PSTYesTMG/NBLUSGS379015.31 Unspecified NONE
962007-07-26 10:57PSTYesTMG/NBLUSGS498015.21 Unspecified NONE
952007-07-26 10:48PSTYesTMG/NBLUSGS557015.19 Unspecified NONE
942007-07-26 10:43PSTYesTMG/NBLUSGS573015.18 Unspecified NONE
932007-07-26 10:38PSTYesTMG/NBLUSGS607015.18 Unspecified NONE
922007-07-26 10:31PSTYesTMG/NBLUSGS627015.19 Unspecified NONE
912007-07-26 10:21PSTYesTMG/NBLUSGS654015.21 Unspecified NONE
902007-07-26 10:16PSTYesTMG/NBLUSGS650015.22 Unspecified NONE
892007-07-26 10:06PSTYesTMG/NBLUSGS696015.26 Unspecified NONE
882006-10-05 13:32PSTYes???USGS-193017.02 Unspecified NONE
872006-10-05 13:27PSTYes???USGS-190016.97 Unspecified NONE
862006-10-05 13:22PSTYes???USGS-220016.91 Unspecified NONE
852006-10-05 13:16PSTYes???USGS-226016.85 Unspecified NONE
842006-10-05 12:54PSTYes???USGS-244016.61 Unspecified NONE
832006-10-05 12:46PSTYes???USGS-241016.52 Unspecified NONE
822006-10-05 12:39PSTYes???USGS-258016.44 Unspecified NONE
812006-10-05 12:32PSTYes???USGS-238016.36 Unspecified NONE
802006-10-05 12:12PSTYes???USGS-235016.12 Unspecified NONE
792006-10-05 12:06PSTYes???USGS-205016.06 Unspecified NONE
782006-10-05 12:00PSTYes???USGS-199016.00 Unspecified NONE
772006-10-05 11:54PSTYes???USGS-126015.94 Unspecified NONE
762006-10-05 11:46PSTYes???USGS-105015.85 Unspecified NONE
752006-10-05 11:41PSTYes???USGS-52515.81 Unspecified NONE
742006-10-05 11:36PSTYes???USGS-35415.75 Unspecified NONE
732006-10-05 11:30PSTYes???USGS31915.69 Unspecified NONE
722006-10-05 11:25PSTYes???USGS61215.64 Unspecified NONE
712006-10-05 11:19PSTYes???USGS121015.58 Unspecified NONE
702006-10-05 11:12PSTYes???USGS161015.51 Unspecified NONE
692006-10-05 11:06PSTYes???USGS238015.44 Unspecified NONE
682006-10-05 11:01PSTYes???USGS274015.39 Unspecified NONE
672006-10-05 10:56PSTYes???USGS340015.34 Unspecified NONE
662006-10-05 10:50PSTYes???USGS367015.29 Unspecified NONE
652006-10-05 10:43PSTYes???USGS431015.25 Unspecified NONE
642006-10-05 10:37PSTYes???USGS469015.22 Unspecified NONE
632006-10-05 10:32PSTYes???USGS522015.22 Unspecified NONE
622006-10-05 10:24PSTYes???USGS519015.22 Unspecified NONE
612006-10-05 10:19PSTYes???USGS559015.22 Unspecified NONE
602006-10-05 10:12PSTYes???USGS567015.23 Unspecified NONE
592006-10-05 10:06PSTYes???USGS606015.25 Unspecified NONE
582006-10-05 10:00PSTYes???USGS595015.27 Unspecified NONE
572006-10-05 09:41PSTYes???USGS643015.38 Unspecified NONE
562006-10-05 09:20PSTYes???USGS624015.50 Unspecified NONE
552006-10-05 09:13PSTYes???USGS650015.55 Unspecified NONE
542006-10-05 08:48PSTYes???USGS626015.74 Unspecified NONE
532006-10-05 08:41PSTYes???USGS656015.81 Unspecified NONE
522006-10-05 08:12PSTYes???USGS607016.02 Unspecified NONE
512006-10-05 08:04PSTYes???USGS629016.08 Unspecified NONE
502006-10-05 07:49PSTYes???USGS610016.21 Unspecified NONE
492006-10-05 07:42PSTYes???USGS630016.27 Unspecified NONE
482006-10-05 07:34PSTYes???USGS620016.34 Unspecified NONE
472006-10-05 07:27PSTYes???USGS618016.40 Unspecified NONE
462006-08-03 15:42PSTYes???USGS302017.07 Unspecified NONE
452006-08-03 15:34PSTYes???USGS306017.09 Unspecified NONE
442006-08-03 15:20PSTYes???USGS300017.13 Unspecified NONE
432006-08-03 15:12PSTYes???USGS295017.15 Unspecified NONE
422006-08-03 14:54PSTYes???USGS287017.20 Unspecified NONE
412006-08-03 14:49PSTYes???USGS282017.22 Unspecified NONE
402006-08-03 14:34PSTYes???USGS282017.25 Unspecified NONE
392006-08-03 14:29PSTYes???USGS278017.27 Unspecified NONE
382006-08-03 14:22PSTYes???USGS273017.29 Unspecified NONE
372006-08-03 14:18PSTYes???USGS265017.29 Unspecified NONE
362006-08-03 14:14PSTYes???USGS259017.30 Unspecified NONE
352006-08-03 14:10PSTYes???USGS253017.31 Unspecified NONE
342006-08-03 13:54PSTYes???USGS233017.33 Unspecified NONE
332006-08-03 13:49PSTYes???USGS216017.33 Unspecified NONE
322006-08-03 13:44PSTYes???USGS216017.34 Unspecified NONE
312006-08-03 13:40PSTYes???USGS212017.34 Unspecified NONE
302006-08-03 13:24PSTYes???USGS180017.35 Unspecified NONE
292006-08-03 13:16PSTYes???USGS172017.32 Unspecified NONE
282006-08-03 13:12PSTYes???USGS165017.33 Unspecified NONE
272006-08-03 13:08PSTYes???USGS156017.33 Unspecified NONE
262006-08-03 13:03PSTYes???USGS136017.32 Unspecified NONE
252006-08-03 12:59PSTYes???USGS129017.31 Unspecified NONE
242006-08-03 12:40PSTYes???USGS90117.30 Unspecified NONE
232006-08-03 12:35PSTYes???USGS88017.25 Unspecified NONE
222006-08-03 12:30PSTYes???USGS99417.25 Unspecified NONE
212006-08-03 12:26PSTYes???USGS107017.23 Unspecified NONE
202006-08-03 12:21PSTYes???USGS61917.23 Unspecified NONE
192006-08-03 12:15PSTYes???USGS38917.19 Unspecified NONE
182006-08-03 12:10PSTYes???USGS54417.19 Unspecified NONE
172006-08-03 12:05PSTYes???USGS62417.15 Unspecified NONE
162006-08-03 12:00PSTYes???USGS18717.15 Unspecified NONE
152006-08-03 11:55PSTYes???USGS10517.12 Unspecified NONE
142006-08-03 11:50PSTYes???USGS94.017.10 Unspecified NONE
132006-08-03 11:43PSTYes???USGS48.017.05 Unspecified NONE
122006-08-03 11:17PSTYes???USGS-44016.90 Unspecified NONE
112006-08-03 11:12PSTYes???USGS-47516.88 Unspecified NONE
102006-08-03 11:06PSTYes???USGS-69416.84 Unspecified NONE
92006-08-03 10:55PSTYes???USGS-79916.75 Unspecified NONE
82006-08-03 10:31PSTYes???USGS-38216.76 Unspecified NONE
72006-08-03 10:27PSTYes???USGS-108016.67 Unspecified NONE
62006-08-03 10:21PSTYes???USGS-108016.62 Unspecified NONE
52006-08-03 09:57PSTYes???USGS-93916.47 Unspecified NONE
42006-08-03 09:52PSTYes???USGS-80516.45 Unspecified NONE
32006-08-03 09:47PSTYes???USGS-78916.44 Unspecified NONE
22006-08-03 09:40PSTYes???USGS-57416.39 Unspecified NONE
12006-08-03 09:36PSTYes???USGS-64216.31 Unspecified NONE